�N����,����,�~����,�C��,���x,�C��,����,���ϕ���,�ő�u�ԕ���,�ő厞����,���˗�,�I�_���x,�n�����x,�ő啗���N��,DTYPE
"17/09/25","00:10",0.0,17.9,91.1,1009.7,321.8,1.7,2.8,337.0,0.00,16.5,21.5,"00:01:36",1
"17/09/25","00:20",0.0,17.7,90.4,1009.3,318.5,1.1,1.6,340.9,0.00,16.1,21.2,"00:10:56",1
"17/09/25","00:30",0.0,17.2,90.7,1009.3,321.6,1.2,1.8,333.8,0.00,15.7,21.2,"00:29:20",1
"17/09/25","00:40",0.0,16.9,91.5,1009.5,324.0,1.2,1.8,329.5,0.00,15.5,21.1,"00:32:32",1
"17/09/25","00:50",0.0,16.6,92.0,1009.7,312.3,0.6,1.0,322.0,0.00,15.3,21.2,"00:40:48",1
"17/09/25","01:00",0.0,16.3,92.9,1009.3,310.9,0.6,1.4,327.8,0.00,15.2,21.2,"00:58:32",1
"17/09/25","01:10",0.0,16.4,93.5,1009.0,323.7,0.8,1.4,333.4,0.00,15.4,21.1,"01:06:08",1
"17/09/25","01:20",0.0,16.4,93.7,1009.3,316.6,0.8,1.7,334.7,0.00,15.4,21.1,"01:17:36",1
"17/09/25","01:30",0.0,16.5,94.2,1009.7,336.2,1.0,1.8,343.5,0.00,15.6,21.1,"01:26:40",1
"17/09/25","01:40",0.0,16.6,94.4,1009.5,336.2,1.2,2.4,327.1,0.00,15.7,20.9,"01:39:04",1
"17/09/25","01:50",0.0,16.7,94.2,1009.5,314.0,1.2,2.7,341.5,0.00,15.8,21.0,"01:42:00",1
"17/09/25","02:00",0.0,16.8,94.4,1009.3,308.1,1.3,2.5,331.7,0.00,15.9,20.9,"01:57:36",1
"17/09/25","02:10",0.0,17.0,94.2,1009.0,325.9,1.8,3.1,325.8,0.00,16.1,20.9,"02:06:00",1
"17/09/25","02:20",0.0,16.7,93.6,1009.3,298.1,0.6,2.0,327.6,0.00,15.7,20.7,"02:10:32",1
"17/09/25","02:30",0.0,16.6,94.2,1009.0,306.9,1.1,2.1,312.6,0.00,15.7,20.8,"02:24:24",1
"17/09/25","02:40",0.0,16.5,93.8,1009.5,305.0,0.6,1.1,271.2,0.00,15.5,20.7,"02:33:12",1
"17/09/25","02:50",0.0,16.1,94.1,1009.7,304.2,0.7,1.1,313.2,0.00,15.2,20.6,"02:42:16",1
"17/09/25","03:00",0.0,16.0,94.5,1009.7,304.3,0.8,1.3,307.6,0.00,15.2,20.6,"02:57:12",1
"17/09/25","03:10",0.0,16.1,94.6,1009.7,297.6,0.7,1.7,309.7,0.00,15.3,20.5,"03:02:16",1
"17/09/25","03:20",0.0,16.3,95.2,1009.7,280.0,0.8,1.4,314.7,0.00,15.6,20.4,"03:10:56",1
"17/09/25","03:30",0.0,16.1,94.7,1009.7,298.9,0.7,1.4,325.7,0.00,15.3,20.5,"03:27:12",1
"17/09/25","03:40",0.0,16.0,95.2,1009.7,285.2,0.6,1.4,308.8,0.00,15.3,20.4,"03:35:28",1
"17/09/25","03:50",0.0,16.0,94.9,1009.7,286.0,0.7,1.6,323.0,0.00,15.2,20.5,"03:40:16",1
"17/09/25","04:00",0.0,15.7,95.1,1010.0,303.8,0.5,1.3,324.7,0.00,15.0,20.4,"03:56:32",1
"17/09/25","04:10",0.0,15.6,95.4,1009.7,318.7,1.0,1.7,316.2,0.00,14.9,20.4,"04:08:08",1
"17/09/25","04:20",0.0,15.5,95.6,1010.0,327.0,1.2,1.6,317.8,0.00,14.8,20.5,"04:11:12",1
"17/09/25","04:30",0.0,15.6,95.9,1009.7,289.4,0.8,1.4,322.1,0.00,15.0,20.4,"04:20:08",1
"17/09/25","04:40",0.0,15.6,95.8,1009.7,293.2,0.7,1.3,319.1,0.00,15.0,20.2,"04:39:12",1
"17/09/25","04:50",0.0,15.6,96.1,1010.2,306.6,0.8,1.8,330.9,0.00,15.0,20.2,"04:49:12",1
"17/09/25","05:00",0.0,15.7,96.4,1010.0,301.9,1.1,2.0,324.1,0.00,15.2,20.2,"04:58:00",1
"17/09/25","05:10",0.0,15.8,96.2,1010.0,302.9,1.0,1.7,306.5,0.00,15.2,20.2,"05:00:08",1
"17/09/25","05:20",0.0,15.7,96.1,1010.0,292.9,0.8,1.9,325.1,0.00,15.1,20.1,"05:19:52",1
"17/09/25","05:30",0.0,15.6,96.2,1010.2,306.2,1.0,1.6,332.5,0.00,15.0,20.2,"05:21:20",1
"17/09/25","05:40",0.0,15.6,96.1,1010.0,296.7,0.7,1.4,330.6,0.00,15.0,20.2,"05:30:02",1
"17/09/25","05:50",0.0,15.6,96.0,1010.0,326.4,1.3,1.8,336.5,0.00,15.0,20.2,"05:45:36",1
"17/09/25","06:00",0.0,15.4,96.2,1010.0,311.6,0.8,1.7,323.8,0.00,14.8,20.0,"05:57:52",1
"17/09/25","06:10",0.0,15.6,96.6,1010.4,303.1,1.0,2.0,328.0,0.00,15.1,20.2,"06:06:48",1
"17/09/25","06:20",0.0,16.0,96.6,1010.2,298.3,0.8,1.4,283.8,0.00,15.5,20.0,"06:13:20",1
"17/09/25","06:30",0.0,16.5,96.5,1010.2,286.1,1.0,1.8,309.5,0.00,16.0,20.0,"06:20:48",1
"17/09/25","06:40",0.0,17.0,96.1,1010.0,293.2,1.0,1.7,325.0,0.01,16.4,20.0,"06:39:52",1
"17/09/25","06:50",0.0,17.4,94.3,1010.2,334.7,1.0,2.6,354.8,0.02,16.5,20.1,"06:44:08",1
"17/09/25","07:00",0.0,18.1,91.4,1010.2,340.5,1.1,2.5,331.0,0.03,16.7,20.2,"06:51:36",1
"17/09/25","07:10",0.0,18.5,90.3,1010.4,350.3,0.8,1.8,330.4,0.04,16.9,20.0,"07:06:56",1
"17/09/25","07:20",0.0,19.7,88.0,1010.7,314.7,0.8,1.8,338.8,0.05,17.7,20.4,"07:15:44",1
"17/09/25","07:30",0.0,20.3,84.8,1010.4,325.9,0.8,2.1,324.2,0.07,17.7,20.3,"07:21:20",1
"17/09/25","07:40",0.0,20.3,85.0,1010.7,319.4,1.1,3.4,340.9,0.10,17.7,20.1,"07:38:16",1
"17/09/25","07:50",0.0,20.6,84.5,1010.9,329.5,1.6,2.9,328.2,0.14,17.9,20.6,"07:41:12",1
"17/09/25","08:00",0.0,21.1,83.3,1010.7,333.2,1.6,4.3,339.1,0.17,18.2,20.4,"07:50:56",1
"17/09/25","08:10",0.0,21.3,82.5,1010.9,321.0,1.5,2.8,349.0,0.19,18.2,20.4,"08:04:16",1
"17/09/25","08:20",0.0,21.8,80.7,1010.7,321.2,1.3,3.1,339.7,0.22,18.4,20.7,"08:12:56",1
"17/09/25","08:30",0.0,22.3,78.4,1010.7,306.0,1.2,3.1,341.2,0.24,18.4,20.7,"08:20:48",1
"17/09/25","08:40",0.0,22.9,77.2,1011.2,276.2,1.0,2.6,232.9,0.27,18.7,20.9,"08:39:12",1
"17/09/25","08:50",0.0,23.5,75.6,1010.7,298.6,0.8,1.8,334.4,0.29,19.0,20.9,"08:40:40",1
"17/09/25","09:00",0.0,23.7,74.1,1010.4,278.3,0.8,1.8,350.6,0.32,18.9,21.2,"08:58:00",1
"17/09/25","09:10",0.0,23.7,72.0,1009.7,222.3,1.6,2.9,229.5,0.34,18.4,21.0,"09:02:08",1
"17/09/25","09:20",0.0,24.4,69.6,1009.5,176.8,0.8,1.7,116.1,0.36,18.5,21.2,"09:15:04",1
"17/09/25","09:30",0.0,25.0,69.7,1009.5,123.0,0.7,1.7,174.6,0.37,19.1,21.4,"09:21:12",1
"17/09/25","09:40",0.0,25.8,66.2,1008.8,71.6,0.7,1.9,136.4,0.41,19.1,21.8,"09:30:24",1
"17/09/25","09:50",0.0,25.7,68.5,1008.8,199.9,0.7,1.8,220.1,0.39,19.5,22.1,"09:42:32",1
"17/09/25","10:00",0.0,25.8,66.1,1009.3,177.3,0.8,1.8,188.8,0.39,19.0,22.0,"09:56:16",1
"17/09/25","10:10",0.0,26.0,65.1,1009.3,41.7,0.7,1.7,115.7,0.40,19.0,22.1,"10:02:32",1
"17/09/25","10:20",0.0,27.2,64.2,1009.7,170.1,0.6,2.2,119.8,0.49,19.9,22.3,"10:19:28",1
"17/09/25","10:30",0.0,26.8,65.2,1009.5,151.6,1.1,2.5,185.1,0.41,19.8,22.4,"10:23:20",1
"17/09/25","10:40",0.0,27.1,64.5,1009.3,156.2,1.2,2.4,158.2,0.46,19.9,22.6,"10:34:08",1
"17/09/25","10:50",0.0,27.4,62.9,1009.0,161.3,1.0,2.0,208.9,0.49,19.7,22.8,"10:45:20",1
"17/09/25","11:00",0.0,27.9,59.5,1009.0,101.5,0.7,1.9,85.5,0.47,19.3,23.2,"10:50:08",1
"17/09/25","11:10",0.0,27.5,58.4,1009.0,111.7,1.0,2.6,131.5,0.49,18.7,23.3,"11:08:00",1
"17/09/25","11:20",0.0,27.6,55.3,1009.3,219.1,1.0,2.0,225.2,0.54,17.9,23.4,"11:16:08",1
"17/09/25","11:30",0.0,28.6,56.1,1009.0,161.9,0.5,1.4,346.1,0.53,19.0,23.6,"11:22:08",1
"17/09/25","11:40",0.0,28.3,56.5,1009.3,192.6,1.0,2.2,215.8,0.53,18.9,23.8,"11:39:28",1
"17/09/25","11:50",0.0,28.3,56.8,1009.0,216.2,1.2,2.9,220.0,0.54,19.0,24.0,"11:46:16",1
"17/09/25","12:00",0.0,28.3,52.4,1008.6,228.7,1.6,3.6,227.6,0.52,17.7,24.2,"11:52:32",1
"17/09/25","12:10",0.0,28.6,50.2,1008.3,199.4,1.5,3.6,190.1,0.53,17.3,24.5,"12:02:08",1
"17/09/25","12:20",0.0,29.0,49.0,1008.6,153.2,1.1,2.6,117.0,0.53,17.3,24.6,"12:17:20",1
"17/09/25","12:30",0.0,29.5,41.9,1008.3,116.6,0.8,2.1,158.5,0.53,15.2,24.7,"12:25:52",1
"17/09/25","12:40",0.0,29.6,45.0,1008.3,43.6,1.1,2.2,162.3,0.52,16.5,25.0,"12:39:20",1
"17/09/25","12:50",0.0,30.0,43.0,1008.3,179.5,0.7,2.5,55.1,0.51,16.1,25.2,"12:42:00",1
"17/09/25","13:00",0.0,29.9,42.5,1008.3,119.7,1.1,2.4,110.1,0.50,15.8,25.3,"12:56:40",1
"17/09/25","13:10",0.0,29.8,42.1,1008.3,130.6,0.8,2.4,121.7,0.51,15.6,25.3,"13:04:32",1
"17/09/25","13:20",0.0,29.6,46.6,1008.1,107.2,1.2,3.4,116.1,0.46,17.0,25.3,"13:19:04",1
"17/09/25","13:30",0.0,29.6,46.0,1007.8,138.5,1.2,3.2,133.7,0.47,16.8,25.5,"13:20:02",1
"17/09/25","13:40",0.0,29.9,42.9,1007.6,246.6,1.1,3.7,180.3,0.45,16.0,25.6,"13:30:48",1
"17/09/25","13:50",0.0,29.8,43.7,1007.6,191.8,1.3,2.6,203.1,0.44,16.2,25.6,"13:46:08",1
"17/09/25","14:00",0.0,30.0,40.2,1007.4,194.3,1.6,3.7,218.4,0.42,15.1,25.6,"13:52:16",1
"17/09/25","14:10",0.0,29.8,42.9,1007.4,229.8,1.1,3.4,224.5,0.41,15.9,25.7,"14:08:56",1
"17/09/25","14:20",0.0,29.8,39.7,1007.1,181.4,1.7,3.5,204.6,0.39,14.7,25.8,"14:15:20",1
"17/09/25","14:30",0.0,29.9,40.8,1007.1,201.6,1.3,2.8,194.4,0.37,15.2,25.8,"14:28:56",1
"17/09/25","14:40",0.0,29.7,38.1,1006.9,182.3,2.1,5.7,200.6,0.35,14.0,25.7,"14:38:40",1
"17/09/25","14:50",0.0,29.6,37.4,1006.7,225.2,1.6,4.5,221.1,0.33,13.6,25.8,"14:45:20",1
"17/09/25","15:00",0.0,29.5,37.7,1006.7,199.8,2.0,4.4,201.9,0.31,13.6,25.9,"14:56:24",1
"17/09/25","15:10",0.0,29.6,35.3,1006.2,138.9,1.0,2.2,135.0,0.29,12.7,25.7,"15:03:36",1
"17/09/25","15:20",0.0,29.7,37.3,1006.2,202.9,1.1,2.9,220.0,0.26,13.6,25.8,"15:16:32",1
"17/09/25","15:30",0.0,29.0,34.7,1006.4,156.0,1.1,2.4,138.6,0.24,11.9,25.6,"15:21:04",1
"17/09/25","15:40",0.0,29.3,35.6,1006.4,247.2,0.6,1.9,331.2,0.21,12.6,25.7,"15:33:52",1
"17/09/25","15:50",0.0,29.6,32.9,1006.0,197.7,0.8,1.7,166.0,0.19,11.6,25.7,"15:48:40",1
"17/09/25","16:00",0.0,29.2,37.2,1006.0,169.1,1.3,2.5,151.3,0.16,13.1,25.5,"15:55:36",1
"17/09/25","16:10",0.0,29.0,38.0,1006.2,189.4,0.8,1.9,191.2,0.13,13.3,25.3,"16:04:16",1
"17/09/25","16:20",0.0,28.8,37.4,1005.5,126.6,0.7,2.5,341.5,0.12,12.9,25.4,"16:11:12",1
"17/09/25","16:30",0.0,28.6,36.6,1005.7,144.5,0.6,1.4,131.2,0.09,12.4,25.4,"16:23:04",1
"17/09/25","16:40",0.0,28.2,42.5,1005.2,210.6,0.6,1.6,225.1,0.07,14.3,25.1,"16:37:36",1
"17/09/25","16:50",0.0,27.4,47.0,1005.2,281.3,0.7,1.4,316.5,0.04,15.1,24.8,"16:41:36",1
"17/09/25","17:00",0.0,26.1,51.3,1005.2,267.9,0.5,1.2,245.2,0.01,15.3,25.1,"16:56:24",1
"17/09/25","17:10",0.0,25.0,59.9,1006.0,282.4,0.5,1.6,314.3,0.00,16.7,24.8,"17:04:56",1
"17/09/25","17:20",0.0,24.0,61.3,1005.7,265.6,0.6,1.2,254.8,0.00,16.1,24.7,"17:16:40",1
"17/09/25","17:30",0.0,23.5,63.8,1006.0,281.5,0.7,1.4,257.0,0.00,16.3,24.6,"17:20:56",1
"17/09/25","17:40",0.0,22.8,64.9,1006.4,285.5,0.8,1.3,296.8,0.00,15.9,24.3,"17:34:24",1
"17/09/25","17:50",0.0,22.5,65.4,1006.4,288.2,1.2,1.8,300.8,0.00,15.7,24.1,"17:47:28",1
"17/09/25","18:00",0.0,22.3,65.1,1006.7,279.8,1.1,1.6,266.9,0.00,15.5,24.1,"17:55:12",1
"17/09/25","18:10",0.0,21.9,65.7,1006.7,273.3,1.2,1.9,252.5,0.00,15.2,24.2,"18:08:48",1
"17/09/25","18:20",0.0,21.7,65.8,1006.4,274.4,1.3,2.0,332.8,0.00,15.1,23.6,"18:15:36",1
"17/09/25","18:30",0.0,21.6,66.5,1006.7,278.9,1.2,2.1,282.3,0.00,15.1,23.6,"18:27:12",1
"17/09/25","18:40",0.0,21.6,65.2,1006.9,298.4,1.3,3.2,331.7,0.00,14.8,23.6,"18:30:48",1
"17/09/25","18:50",0.0,21.4,68.0,1007.1,323.6,1.1,2.0,338.7,0.00,15.3,23.6,"18:49:44",1
"17/09/25","19:00",0.0,21.0,70.2,1007.6,315.4,0.7,1.6,342.8,0.00,15.4,23.4,"18:57:36",1
"17/09/25","19:10",0.0,20.8,73.1,1007.6,330.4,1.3,2.7,335.0,0.00,15.8,23.3,"19:05:44",1
"17/09/25","19:20",0.0,20.8,74.9,1007.8,330.2,1.1,1.7,334.3,0.00,16.2,23.1,"19:13:52",1
"17/09/25","19:30",0.0,20.6,76.7,1008.1,299.9,1.0,2.1,331.4,0.00,16.4,23.2,"19:22:48",1
"17/09/25","19:40",0.0,20.5,77.8,1007.8,281.5,1.0,1.6,315.6,0.00,16.5,23.1,"19:37:20",1
"17/09/25","19:50",0.0,20.3,79.2,1008.1,337.2,0.7,1.9,316.3,0.00,16.6,22.8,"19:43:52",1
"17/09/25","20:00",0.0,19.9,80.4,1008.6,302.3,0.5,1.0,309.4,0.00,16.5,22.8,"19:53:20",1
"17/09/25","20:10",0.0,19.4,82.7,1008.6,311.9,0.6,1.2,315.5,0.00,16.4,22.8,"20:03:04",1
"17/09/25","20:20",0.0,19.2,83.7,1009.0,301.6,0.7,1.4,321.8,0.00,16.4,22.6,"20:13:20",1
"17/09/25","20:30",0.0,18.8,85.8,1009.0,297.9,1.1,1.6,300.1,0.00,16.4,22.6,"20:28:24",1
"17/09/25","20:40",0.0,18.5,86.8,1008.8,309.8,1.2,1.6,323.4,0.00,16.3,22.6,"20:32:24",1
"17/09/25","20:50",0.0,18.5,88.3,1008.8,306.5,1.2,1.8,333.2,0.00,16.6,22.4,"20:46:08",1
"17/09/25","21:00",0.0,18.5,88.7,1008.8,312.1,1.0,1.8,317.2,0.00,16.6,22.5,"20:50:08",1
"17/09/25","21:10",0.0,18.6,89.2,1008.6,299.3,1.3,2.1,310.3,0.00,16.8,22.3,"21:04:24",1
"17/09/25","21:20",0.0,19.0,88.8,1008.8,315.0,1.8,3.2,328.0,0.00,17.2,22.2,"21:16:24",1
"17/09/25","21:30",0.0,19.2,87.8,1008.3,332.9,2.1,3.6,317.3,0.00,17.2,22.2,"21:23:52",1
"17/09/25","21:40",0.0,19.5,86.9,1008.8,301.0,1.7,3.1,323.5,0.00,17.3,22.1,"21:34:08",1
"17/09/25","21:50",0.0,19.3,86.5,1009.0,313.0,1.3,2.7,331.8,0.00,17.0,22.1,"21:46:24",1
"17/09/25","22:00",0.0,19.3,86.5,1009.3,317.1,2.0,3.9,333.1,0.00,17.0,22.1,"21:55:44",1
"17/09/25","22:10",0.0,19.4,86.0,1009.0,307.9,1.8,4.0,322.0,0.00,17.0,22.0,"22:08:24",1
"17/09/25","22:20",0.0,19.4,85.8,1009.0,321.2,2.2,3.7,329.7,0.00,17.0,21.9,"22:18:16",1
"17/09/25","22:30",0.0,19.2,85.7,1009.0,314.2,1.6,2.4,322.4,0.00,16.8,22.0,"22:21:12",1
"17/09/25","22:40",0.0,18.9,86.1,1009.5,300.1,1.2,2.2,320.8,0.00,16.6,21.8,"22:38:40",1
"17/09/25","22:50",0.0,18.9,86.5,1009.3,311.4,1.5,2.5,320.8,0.00,16.6,21.7,"22:42:16",1
"17/09/25","23:00",0.0,18.8,87.2,1009.3,323.9,1.5,2.6,329.4,0.00,16.7,21.7,"22:53:20",1
"17/09/25","23:10",0.0,18.9,87.3,1009.0,338.6,1.6,3.1,336.1,0.00,16.8,21.6,"23:00:32",1
"17/09/25","23:20",0.0,19.0,87.2,1009.0,323.7,1.8,3.7,336.5,0.00,16.9,21.8,"23:11:12",1
"17/09/25","23:30",0.0,18.9,87.0,1009.0,311.4,1.2,2.4,321.9,0.00,16.7,21.7,"23:21:20",1
"17/09/25","23:40",0.0,18.8,87.4,1008.8,316.6,1.8,2.8,332.8,0.00,16.7,21.7,"23:33:04",1
"17/09/25","23:50",0.0,18.7,87.5,1009.3,315.6,2.0,3.2,341.5,0.00,16.6,21.6,"23:46:08",1
"17/09/25","24:00",0.0,18.4,87.8,1009.5,311.6,1.7,2.8,323.9,0.00,16.4,21.7,"23:58:48",1
